N9WFD Weather Reports


Display with metric or nautical units.
time (UTC)temp
F
wind
direction
speed
MPH
gust
MPH
rain 1hr
in
rain 24hr
in
rain mn
in
humidity
%
barometer
mb
20260503233017 68 21 10.0 17.0 0.00 0.00 0.00 43 1004.2
20260503231515 68 29 9.0 18.0 0.00 0.00 0.00 43 1004.5
20260503230013 68 350 7.0 19.0 0.00 0.00 0.00 43 1004.4
20260503224524 69 21 8.0 19.0 0.00 0.00 0.00 43 1004.5
20260503223011 68 323 9.0 21.0 0.00 0.00 0.00 43 1004.4
20260503221507 68 347 10.0 18.0 0.00 0.00 0.00 43 1004.5
20260503220009 67 315 13.0 24.0 0.00 0.00 0.00 44 1004.7
20260503214501 66 308 12.0 20.0 0.00 0.00 0.00 44 1004.9
20260503213059 66 347 8.0 19.0 0.00 0.00 0.00 45 1005.1
20260503211558 66 308 8.0 27.0 0.00 0.00 0.00 44 1005.3
20260503210053 66 312 12.0 25.0 0.00 0.00 0.00 44 1005.8
20260503204552 65 338 16.0 26.0 0.00 0.00 0.00 43 1005.9
20260503203049 65 338 19.0 37.0 0.00 0.00 0.00 43 1006.2
20260503201546 65 338 16.0 29.0 0.00 0.00 0.00 45 1006.4
20260503200039 62 331 9.0 21.0 0.00 0.00 0.00 52 1007.0
20260503194537 62 326 11.0 23.0 0.00 0.00 0.00 53 1007.4
20260503193033 61 329 12.0 24.0 0.00 0.00 0.00 51 1007.7
20260503191531 60 293 12.0 23.0 0.00 0.00 0.00 54 1007.7
20260503190028 60 319 15.0 29.0 0.00 0.00 0.00 50 1007.8
20260503184626 59 325 12.0 28.0 0.00 0.00 0.00 52 1007.9
20260503183025 58 314 17.0 26.0 0.00 0.00 0.00 50 1007.9
20260503181521 59 308 13.0 26.0 0.00 0.00 0.00 52 1008.2
20260503180052 58 314 15.0 24.0 0.00 0.00 0.00 53 1008.5
20260503174546 57 311 9.0 25.0 0.00 0.00 0.00 57 1009.0
20260503173040 57 296 12.0 29.0 0.00 0.00 0.00 58 1009.4
20260503171559 55 283 13.0 23.0 0.00 0.00 0.00 63 1010.1
20260503081517 48 343 5.0 9.0 0.00 0.00 0.00 51 1013.7
20260503071513 48 331 6.0 10.0 0.00 0.00 0.00 52 1014.0
20260503054604 48 342 4.0 6.0 0.00 0.00 0.00 52 1014.7
20260503053059 48 341 3.0 6.0 0.00 0.00 0.00 53 1014.8
20260503051556 48 324 3.0 6.0 0.00 0.00 0.00 53 1014.9
20260503050054 48 326 2.0 6.0 0.00 0.00 0.00 53 1014.9
20260503044556 48 339 2.0 7.0 0.00 0.00 0.00 53 1015.0
20260503043053 48 338 3.0 6.0 0.00 0.00 0.00 53 1015.1
20260503041549 48 345 3.0 5.0 0.00 0.00 0.00 53 1015.2
20260503040048 48 328 1.0 4.0 0.00 0.00 0.00 53 1015.3
20260503034548 48 324 2.0 4.0 0.00 0.00 0.00 53 1015.4
20260503033047 48 318 2.0 5.0 0.00 0.00 0.00 54 1015.4
20260503031544 48 321 2.0 5.0 0.00 0.00 0.00 53 1015.5
20260503030045 49 326 3.0 5.0 0.00 0.01 0.00 53 1015.6
20260503024543 49 333 2.0 4.0 0.00 0.01 0.00 53 1015.7
20260503023043 49 331 2.0 4.0 0.00 0.01 0.00 53 1015.6
20260503021512 49 333 1.0 4.0 0.00 0.01 0.00 53 1015.6
20260503020011 50 337 2.0 4.0 0.00 0.02 0.00 51 1015.6
20260503014509 51 341 2.0 4.0 0.00 0.02 0.00 49 1015.5
20260503013012 51 343 2.0 4.0 0.00 0.02 0.00 48 1015.4
20260503011506 51 347 2.0 4.0 0.00 0.02 0.00 47 1015.4
20260503010006 52 352 3.0 5.0 0.00 0.03 0.00 46 1015.4
20260503004505 53 1 2.0 4.0 0.00 0.03 0.00 43 1015.5
20260503003003 53 19 2.0 4.0 0.00 0.03 0.00 43 1015.5
20260503001502 54 339 3.0 6.0 0.00 0.03 0.00 42 1015.5
20260503000001 54 344 5.0 7.0 0.00 0.04 0.00 41 1015.6
20260502234604 55 45 5.0 10.0 0.00 0.04 0.00 40 1015.7